Regional Weather Roundup
Issued by NWS

Home | Current Version | Previous Version | Graphics & Text | Print | Product List | Glossary On
Versions: 1 2 3 4 5 6 7 8 9 10 11 12 13 14 15 16 17 18 19 20 21 22 23 24 25 26 27 28 29 30 31 32 33 34 35 36 37 38 39 40 41 42 43 44 45 46 47 48 49 50
000
ASUS43 KFSD 161902
RWRSD

WEATHER ROUNDUP FOR SOUTH DAKOTA
NATIONAL WEATHER SERVICE SIOUX FALLS SD
100 PM CST TUE JAN 16 2018

NOTE: "FAIR" INDICATES FEW OR NO CLOUDS BELOW 12,000 FEET WITH NO
SIGNIFICANT WEATHER AND/OR OBSTRUCTIONS TO VISIBILITY.


SDZ001>005-009-010-012>017-162000-
NORTHWEST AND NORTH CENTRAL SOUTH DAKOTA

CITY           SKY/WX    TMP DP  RH WIND       PRES   REMARKS
FAITH            N/A      2  -5  72 S17       30.44F WCI -18
MOBRIDGE       SUNNY      8  -6  52 S10       30.54F WCI  -6
$$

SDZ012>016-024>037-041>051-057-063-072>074-162000-
SOUTHWEST AND SOUTH CENTRAL SOUTH DAKOTA

CITY           SKY/WX    TMP DP  RH WIND       PRES   REMARKS
RAPID CTY ARPT SUNNY     13   3  64 SE13      30.39F WCI  -2
PIERRE         SUNNY      8  -7  50 SW6       30.62F WCI  -2
CUSTER         SUNNY     28 -18  12 W8        30.27F WCI  20
ELLSWORTH AFB  SUNNY     13   1  59 S14       30.36F WCI  -2
PHILIP         SUNNY     14   4  64 S8        30.54F WCI   3
PINE RIDGE     SUNNY     20   0  41 S14       30.45F WCI   7
SPEARFISH        N/A     25   5  42 CALM      30.31F
WINNER         FAIR       9  -3  58 S8        30.62F WCI  -3
$$

SDZ004>011-016>023-039-040-162000-
NORTHEAST SOUTH DAKOTA

CITY           SKY/WX    TMP DP  RH WIND       PRES   REMARKS
ABERDEEN       SUNNY      5  -7  57 SW12      30.67F WCI -11
WATERTOWN      SUNNY      4  -2  76 W5        30.62F WCI  -5
BROOKINGS      SUNNY      5  -3  69 NW8       30.64F WCI  -8
$$

SDZ017-020-022-023-036>040-048>070-162000-
SOUTHEAST SOUTH DAKOTA

CITY           SKY/WX    TMP DP  RH WIND       PRES   REMARKS
SIOUX FALLS    SUNNY      2  -4  76 W9        30.69F WCI -13
HURON          SUNNY      3  -5  69 S3        30.71F
CHAMBERLAIN    SUNNY      7  -5  57 CALM      30.67F
MITCHELL       SUNNY      2  -6  69 W7        30.74F WCI -11
YANKTON        SUNNY      4  -4  69 W12       30.74F WCI -12
$$

ABBREVIATIONS USED IN REMARKS
   TC - TEMPERATURE IN CELSIUS
  WCI - WIND CHILL INDEX
   HX - HEAT INDEX
  VSB - VISIBILITY





USA.gov is the U.S. government's official web portal to all federal, state and local government web resources and services.